• Join FlightAware (Why Join?)
  • Login
  • US Flag 
11:29AM EST


 

Airport Tracker/Info


-or-


 

Live Flight TrackerFlight Track Log ✈ SWA862 ✈ 08-Apr-2013 ✈ KBWI - KMHT

Flight Track Log - Related Links

Times and Time Zones

All times are in EDT time to prevent confusion due to time zone crossing. See the SWA862 flight status page for this flight to view local times or setup timezone preferences in your user account.

Time Position Orientation Groundspeed Altitude Reporting Facility
EDT Latitude Longitude Course Direction KTS MPH feet Rate Location/Type
10:00PM 39.1197 -76.5975 113° Southeast 172 198 3,600  Level Washington Center
10:01PM 39.0933 -76.5169 113° Southeast 227 261 6,500 3,521 Climbing Washington Center
10:02PM 39.1169 -76.4103 74° East 253 291 10,700 3,550 Climbing Washington Center
10:03PM 39.1428 -76.2956 74° East 282 325 13,600 2,900 Climbing Washington Center
10:04PM 39.1622 -76.1617 79° East 338 389 16,500 3,000 Climbing Washington Center
10:05PM 39.1772 -76.0228 82° East 377 434 19,600 2,773 Climbing Washington Center
10:06PM 39.1986 -75.8781 79° East 400 460 22,000 2,471 Climbing Washington Center
10:07PM 39.2800 -75.7658 47° Northeast 400 460 24,500 2,231 Climbing Washington Center
10:08PM 39.3656 -75.6561 45° Northeast 413 475 26,500 1,700 Climbing Washington Center
10:09PM 39.4594 -75.5378 44° Northeast 437 503 27,900 1,859 Climbing Washington Center
10:11PM 39.6453 -75.2975 45° Northeast 475 547 32,200 1,859 Climbing New York Center
10:12PM 39.7356 -75.1711 47° Northeast 475 547 33,600 1,744 Climbing New York Center
10:13PM 39.8281 -75.0336 49° Northeast 482 555 35,600 1,714 Climbing New York Center
10:14PM 39.9161 -74.9064 48° Northeast 482 555 37,000 694 Climbing New York Center
10:15PM 40.0122 -74.7739 47° Northeast 468 539 37,000  Level New York Center
10:16PM 40.1244 -74.7261 18° North 426 490 37,000  Level New York Center
10:17PM 40.2383 -74.6808 17° North 416 479 37,000  Level New York Center
10:18PM 40.3439 -74.6406 16° North 425 489 37,000  Level New York Center
10:19PM 40.5275 -74.5778 15° North 424 488 37,000  Level Boston Center
10:20PM 40.6447 -74.5381 14° North 424 488 37,000  Level Boston Center
10:21PM 40.7622 -74.4981 14° North 424 488 37,000  Level Boston Center
10:22PM 40.8797 -74.4550 15° North 424 488 37,000  Level Boston Center
10:23PM 40.9950 -74.4200 13° North 424 488 37,000  Level Boston Center
10:24PM 41.1039 -74.3878 13° North 429 494 37,000  Level Boston Center
10:25PM 41.2236 -74.3444 15° North 434 499 37,000  Level Boston Center
10:26PM 41.3514 -74.2956 16° North 434 499 37,000  Level Boston Center
10:27PM 41.4667 -74.2519 16° North 434 499 37,000 -50 Level Boston Center
10:28PM 41.5600 -74.1575 37° Northeast 448 516 36,900 -1,250 Descending Boston Center
10:29PM 41.6514 -74.0236 48° Northeast 455 524 34,500 -2,800 Descending Boston Center
10:30PM 41.7389 -73.8897 49° Northeast 461 531 31,300 -2,926 Descending Boston Center
10:31PM 41.8278 -73.7606 47° Northeast 472 543 28,600 -2,876 Descending Boston Center
10:32PM 41.9253 -73.6147 48° Northeast 467 537 25,500 -2,750 Descending Boston Center
10:33PM 42.0100 -73.4850 49° Northeast 467 537 23,100 -1,240 Descending Boston Center
10:34PM 42.0839 -73.3717 49° Northeast 456 525 23,000 -50 Descending Boston Center
10:35PM 42.1725 -73.2442 47° Northeast 436 502 23,000  Level Boston Center
10:36PM 42.2544 -73.1217 48° Northeast 436 502 23,000  Level Boston Center
10:37PM 42.3344 -72.9989 49° Northeast 436 502 23,000 -248 Level Boston Center
10:38PM 42.4100 -72.8786 50° Northeast 453 521 22,500 -756 Descending Boston Center
10:39PM 42.4917 -72.7583 47° Northeast 447 514 21,500 -1,563 Descending Boston Center
10:40PM 42.5650 -72.6375 50° Northeast 433 498 19,400 -2,331 Descending Boston Center
10:41PM 42.6339 -72.4994 56° Northeast 411 473 16,800 -2,500 Descending Boston Center
10:42PM 42.6797 -72.3583 66° East 405 466 14,400 -2,269 Descending Boston Center
10:43PM 42.7169 -72.2367 67° East 395 455 12,300 -1,563 Descending Boston Center
10:44PM 42.7750 -72.1036 59° Northeast 384 442 11,300 -836 Descending Boston Center
10:45PM 42.8164 -72.0128 58° Northeast 339 390 10,600 -900 Descending Boston Center
10:46PM 42.8658 -71.9019 59° Northeast 316 364 9,500 -908 Descending Boston Center
10:47PM 42.9011 -71.8194 60° Northeast 295 339 8,800 -1,150 Descending Boston Center
10:48PM 42.9461 -71.7139 60° Northeast 289 333 7,200 -1,300 Descending Boston Center
10:49PM 42.9831 -71.6342 58° Northeast 284 327 6,200 -992 Descending Boston Center
10:50PM 43.0242 -71.5428 58° Northeast 261 300 5,200 -1,700 Descending Boston Center
10:51PM 43.0300 -71.4744 83° East 196 226 2,800 -1,686 Descending Boston Center
10:52PM 42.9819 -71.4667 173° South 131 151 1,800 -1,050 Descending Boston Center
10:53PM 42.9547 -71.4472 152° Southeast 131 151 700 -706 Descending Boston Center
10:54PM 42.9231 -71.4278 156° South 131 151 400 4,116 Descending Boston Center
10:55PM 42.8917 -71.4086 156° South 131 151 9,000 4,336 Climbing Boston Center
10:56PM 42.8603 -71.3864 153° Southeast 131 151 9,000  Level Boston Center
10:57PM 42.8289 -71.3672 156° South 131 151 9,000  Level Boston Center
10:59PM 42.9167 -71.4333 316° Northwest  Level FlightAware Approximate
11:06PM 42.9328 -71.4358 316° Northwest  Level Estimated
11:07PM 42.9328 -71.4358 316° Northwest  Level Estimated
11:08PM 42.9328 -71.4358 316° Northwest  Level Estimated
11:09PM 42.9328 -71.4358 316° Northwest  Level Estimated
11:10PM 42.9328 -71.4358 316° Northwest  Level Estimated